timestamp,surface_pressure_avg,surface_temp_avg,battery_voltage,lat,long
2017-10-30 00:00:00+00:00,238.0898,10.57,12.81,47.84626,-54.09684
2017-10-30 00:10:00+00:00,232.6614,10.54,12.81,47.84626,-54.09684
2017-10-30 00:20:00+00:00,226.9048,10.54,12.81,47.84626,-54.09684
2017-10-30 00:30:00+00:00,226.7714,10.53,12.89,47.84626,-54.09684
2017-10-30 00:40:00+00:00,229.5781,10.51,12.89,47.84626,-54.09684
2017-10-30 00:50:00+00:00,227.3964,10.54,12.89,47.84626,-54.09684
2017-10-30 01:00:00+00:00,224.1414,10.53,12.81,47.84626,-54.09684
2017-10-30 01:10:00+00:00,229.6014,10.52,12.73,47.84626,-54.09684
2017-10-30 01:20:00+00:00,235.3948,10.5,12.81,47.84626,-54.09684
2017-10-30 01:30:00+00:00,234.2514,10.5,12.81,47.84626,-54.09684
2017-10-30 01:40:00+00:00,229.5931,10.5,12.89,47.84626,-54.09684
2017-10-30 01:50:00+00:00,226.3331,10.5,12.89,47.84626,-54.09684
2017-10-30 02:00:00+00:00,223.0314,10.5,12.81,47.84626,-54.09684
2017-10-30 02:10:00+00:00,220.1431,10.5,12.73,47.84626,-54.09684
2017-10-30 02:20:00+00:00,220.2447,10.5,12.81,47.84626,-54.09684
2017-10-30 02:30:00+00:00,221.9865,10.5,12.81,47.84626,-54.09684
2017-10-30 02:40:00+00:00,226.0397,10.5,12.89,47.84626,-54.09684
2017-10-30 02:50:00+00:00,230.3231,10.5,12.89,47.84626,-54.09684
2017-10-30 03:00:00+00:00,233.8098,10.5,12.81,47.84626,-54.09684
2017-10-30 03:10:00+00:00,230.8681,10.5,12.73,47.84626,-54.09684
2017-10-30 03:20:00+00:00,229.3198,10.5,12.81,47.84626,-54.09684
2017-10-30 03:30:00+00:00,232.8681,10.5,12.81,47.84626,-54.09684
2017-10-30 03:40:00+00:00,235.6447,10.49,12.89,47.84626,-54.09684
2017-10-30 03:50:00+00:00,237.0464,10.5,12.89,47.84626,-54.09684
2017-10-30 04:00:00+00:00,242.1631,10.5,12.81,47.84626,-54.09684
2017-10-30 04:10:00+00:00,250.5465,10.5,12.73,47.84626,-54.09684
2017-10-30 04:20:00+00:00,256.0665,10.5,12.81,47.84626,-54.09684
2017-10-30 04:30:00+00:00,258.5281,10.5,12.81,47.84626,-54.09684
2017-10-30 04:40:00+00:00,262.5097,10.5,12.89,47.84626,-54.09684
2017-10-30 04:50:00+00:00,271.1198,10.5,12.89,47.84626,-54.09684
2017-10-30 05:00:00+00:00,280.4397,10.5,12.81,47.84626,-54.09684
2017-10-30 05:10:00+00:00,283.7864,10.5,12.73,47.84626,-54.09684
2017-10-30 05:20:00+00:00,287.3815,10.42,12.81,47.84626,-54.09684
2017-10-30 05:30:00+00:00,294.2114,10.41,12.81,47.84626,-54.09684
2017-10-30 05:40:00+00:00,297.4064,10.43,12.89,47.84626,-54.09684
2017-10-30 05:50:00+00:00,301.058,10.43,12.89,47.84626,-54.09684
2017-10-30 06:00:00+00:00,307.1663,10.42,12.81,47.84626,-54.09684
2017-10-30 06:10:00+00:00,313.3714,10.45,12.73,47.84626,-54.09684
2017-10-30 06:20:00+00:00,308.6846,10.43,12.81,47.84626,-54.09684
2017-10-30 06:30:00+00:00,306.5565,10.43,12.81,47.84626,-54.09684
2017-10-30 06:40:00+00:00,305.3447,10.45,12.81,47.84626,-54.09684
2017-10-30 06:50:00+00:00,305.738,10.46,12.89,47.84626,-54.09684
2017-10-30 07:00:00+00:00,301.558,10.46,12.81,47.84626,-54.09684
2017-10-30 07:10:00+00:00,305.3796,10.44,12.73,47.84626,-54.09684
2017-10-30 07:20:00+00:00,313.2564,10.44,12.81,47.84626,-54.09684
2017-10-30 07:30:00+00:00,318.4114,10.46,12.81,47.84626,-54.09684
2017-10-30 07:40:00+00:00,311.9364,10.45,12.81,47.84626,-54.09684
2017-10-30 07:50:00+00:00,303.6364,10.47,12.89,47.84626,-54.09684
2017-10-30 08:00:00+00:00,302.0447,10.47,12.81,47.84626,-54.09684
2017-10-30 08:10:00+00:00,303.1514,10.48,12.73,47.84626,-54.09684
2017-10-30 08:20:00+00:00,303.5414,10.47,12.81,47.84626,-54.09684
2017-10-30 08:30:00+00:00,302.5947,10.48,12.81,47.84626,-54.09684
2017-10-30 08:40:00+00:00,299.478,10.49,12.81,47.84626,-54.09684
2017-10-30 08:50:00+00:00,289.8564,10.46,12.81,47.84626,-54.09684
2017-10-30 09:00:00+00:00,284.3647,10.44,12.81,47.84626,-54.09684
2017-10-30 09:10:00+00:00,283.783,10.44,12.73,47.84626,-54.09684
2017-10-30 09:20:00+00:00,283.338,10.45,12.81,47.84626,-54.09684
2017-10-30 09:30:00+00:00,282.9781,10.44,12.81,47.84626,-54.09684
2017-10-30 09:40:00+00:00,279.1364,10.45,12.81,47.84626,-54.09684
2017-10-30 09:50:00+00:00,268.2264,10.46,12.81,47.84626,-54.09684
2017-10-30 10:00:00+00:00,257.2131,10.48,12.81,47.84626,-54.09684
2017-10-30 10:10:00+00:00,253.8548,10.48,12.73,47.84626,-54.09684
2017-10-30 10:20:00+00:00,254.5165,10.47,12.81,47.84626,-54.09684
2017-10-30 10:30:00+00:00,251.9897,10.49,12.81,47.84626,-54.09684
2017-10-30 10:40:00+00:00,252.0098,10.47,12.81,47.84626,-54.09684
2017-10-30 10:50:00+00:00,252.9115,10.47,12.81,47.84626,-54.09684
2017-10-30 11:00:00+00:00,248.2531,10.48,12.81,47.84626,-54.09684
2017-10-30 11:10:00+00:00,243.5747,10.48,12.73,47.84626,-54.09684
2017-10-30 11:20:00+00:00,247.2698,10.47,12.81,47.84626,-54.09684
2017-10-30 11:30:00+00:00,249.213,10.47,12.81,47.84626,-54.09684
2017-10-30 11:40:00+00:00,243.9631,10.49,12.89,47.84626,-54.09684
2017-10-30 11:50:00+00:00,239.9648,10.48,12.89,47.84626,-54.09684
2017-10-30 12:00:00+00:00,242.2398,10.47,12.81,47.84626,-54.09684
2017-10-30 12:10:00+00:00,241.1314,10.49,12.81,47.84626,-54.09684
2017-10-30 12:20:00+00:00,235.6148,10.49,12.89,47.84626,-54.09684
2017-10-30 12:30:00+00:00,232.7047,10.49,12.89,47.84626,-54.09684
2017-10-30 12:40:00+00:00,227.6481,10.48,12.97,47.84626,-54.09684
2017-10-30 12:50:00+00:00,221.7964,10.49,12.97,47.84626,-54.09684
2017-10-30 13:00:00+00:00,220.5197,10.48,12.97,47.84626,-54.09684
2017-10-30 13:10:00+00:00,223.1514,10.48,12.89,47.84626,-54.09684
2017-10-30 13:20:00+00:00,221.5364,10.49,12.97,47.84626,-54.09684
2017-10-30 13:30:00+00:00,218.8165,10.48,12.97,47.84626,-54.09684
2017-10-30 13:40:00+00:00,221.0665,10.47,13.05,47.84626,-54.09684
2017-10-30 13:50:00+00:00,219.2848,10.48,13.05,47.84626,-54.09684
2017-10-30 14:00:00+00:00,211.9514,10.49,13.05,47.84626,-54.09684
2017-10-30 14:10:00+00:00,209.4014,10.48,12.97,47.84626,-54.09684
2017-10-30 14:20:00+00:00,216.0998,10.47,13.05,47.84626,-54.09684
2017-10-30 14:30:00+00:00,216.5048,10.49,13.05,47.84626,-54.09684
2017-10-30 14:40:00+00:00,211.4114,10.49,13.13,47.84626,-54.09684
2017-10-30 14:50:00+00:00,214.2131,10.47,13.13,47.84626,-54.09684
2017-10-30 15:00:00+00:00,226.0565,10.44,13.13,47.84626,-54.09684
2017-10-30 15:10:00+00:00,225.6564,10.47,13.05,47.84626,-54.09684
2017-10-30 15:20:00+00:00,223.2698,10.47,13.13,47.84626,-54.09684
2017-10-30 15:30:00+00:00,234.8998,10.45,13.21,47.84626,-54.09684
2017-10-30 15:40:00+00:00,245.7398,10.47,13.21,47.84626,-54.09684
2017-10-30 15:50:00+00:00,244.5381,10.49,13.21,47.84626,-54.09684
2017-10-30 16:00:00+00:00,244.6681,10.49,13.21,47.84626,-54.09684
2017-10-30 16:10:00+00:00,253.9064,10.49,13.05,47.84626,-54.09684
2017-10-30 16:20:00+00:00,260.4864,10.5,13.21,47.84626,-54.09684
2017-10-30 16:30:00+00:00,258.0931,10.5,13.21,47.84626,-54.09684
2017-10-30 16:40:00+00:00,259.5481,10.5,13.29,47.84626,-54.09684
2017-10-30 16:50:00+00:00,273.9147,10.5,13.21,47.84626,-54.09684
2017-10-30 17:00:00+00:00,286.398,10.5,13.21,47.84626,-54.09684
2017-10-30 17:10:00+00:00,284.6047,10.5,13.05,47.84626,-54.09684
2017-10-30 17:20:00+00:00,282.993,10.5,13.13,47.84626,-54.09684
2017-10-30 17:30:00+00:00,289.798,10.5,13.21,47.84626,-54.09684
2017-10-30 17:40:00+00:00,295.7064,10.5,13.13,47.84626,-54.09684
2017-10-30 17:50:00+00:00,298.5363,10.5,13.13,47.84626,-54.09684
2017-10-30 18:00:00+00:00,302.6714,10.5,13.05,47.84626,-54.09684
2017-10-30 18:10:00+00:00,310.8313,10.5,12.97,47.84626,-54.09684
2017-10-30 18:20:00+00:00,315.2829,10.47,13.05,47.84626,-54.09684
2017-10-30 18:30:00+00:00,316.2413,10.46,13.05,47.84626,-54.09684
2017-10-30 18:40:00+00:00,316.9813,10.4,13.05,47.84626,-54.09684
2017-10-30 18:50:00+00:00,320.1112,10.4,13.05,47.84626,-54.09684
2017-10-30 19:00:00+00:00,321.2896,10.4,12.97,47.84626,-54.09684
2017-10-30 19:10:00+00:00,320.9429,10.4,12.89,47.84626,-54.09684
2017-10-30 19:20:00+00:00,328.0814,10.4,12.97,47.84626,-54.09684
2017-10-30 19:30:00+00:00,330.3563,10.4,12.97,47.84626,-54.09684
2017-10-30 19:40:00+00:00,325.7397,10.4,12.97,47.84626,-54.09684
2017-10-30 19:50:00+00:00,320.6063,10.4,12.97,47.84626,-54.09684
2017-10-30 20:00:00+00:00,321.323,10.4,12.89,47.84626,-54.09684
2017-10-30 20:10:00+00:00,324.7597,10.4,12.81,47.84626,-54.09684
2017-10-30 20:20:00+00:00,323.8614,10.4,12.89,47.84626,-54.09684
2017-10-30 20:30:00+00:00,324.5247,10.4,12.89,47.84626,-54.09684
2017-10-30 20:40:00+00:00,323.4363,10.4,12.89,47.84626,-54.09684
2017-10-30 20:50:00+00:00,320.5881,10.4,12.89,47.84626,-54.09684
2017-10-30 21:00:00+00:00,315.023,10.42,12.81,47.84626,-54.09684
2017-10-30 21:10:00+00:00,314.0047,10.4,12.81,47.84626,-54.09684
2017-10-30 21:20:00+00:00,320.0713,10.4,12.81,47.84626,-54.09684
2017-10-30 21:30:00+00:00,317.3246,10.4,12.81,47.84626,-54.09684
2017-10-30 21:40:00+00:00,312.5847,10.4,12.89,47.84626,-54.09684
2017-10-30 21:50:00+00:00,312.733,10.4,12.89,47.84626,-54.09684
2017-10-30 22:00:00+00:00,312.1296,10.4,12.81,47.84626,-54.09684
2017-10-30 22:10:00+00:00,293.743,10.4,12.73,47.84626,-54.09684
2017-10-30 22:20:00+00:00,281.1397,10.4,12.81,47.84626,-54.09684
2017-10-30 22:30:00+00:00,282.993,10.4,12.81,47.84626,-54.09684
2017-10-30 22:40:00+00:00,287.848,10.4,12.89,47.84626,-54.09684
2017-10-30 22:50:00+00:00,280.1764,10.4,12.89,47.84626,-54.09684
2017-10-30 23:00:00+00:00,275.9164,10.4,12.81,47.84626,-54.09684
2017-10-30 23:10:00+00:00,277.6814,10.4,12.73,47.84626,-54.09684
2017-10-30 23:20:00+00:00,274.0914,10.4,12.81,47.84626,-54.09684
2017-10-30 23:30:00+00:00,258.8831,10.4,12.81,47.84626,-54.09684
2017-10-30 23:40:00+00:00,252.5898,10.4,12.89,47.84626,-54.09684
2017-10-30 23:50:00+00:00,256.5047,10.4,12.89,47.84626,-54.09684
